Terug naar catalogus

STARLINK-36459

ActiefCommunicatieVLEO
NORAD 67427·PAYLOAD·🇺🇸 United States

Gelanceerd Jan 12, 2026 vanaf Cape Canaveral Space Force Station

Loading…

Volgende Passages (komende 24 uur)

TLE

VersSource: CelesTrak SupGP

Epoch: Sep 15, 2026, 02:36 UTC

1 67427C 26005Z   26258.10881944 -.00028669  00000+0 -10385-2 0  2586
2 67427  43.0003 248.5315 0001363 264.2781  48.9887 15.27588946    19

Volg STARLINK-36459 in realtime met AllMySat

Download on the App Store